When you browse on this site, cookies collect data to enhance your experience and personalize the content and advertising you see.
Visit our Privacy Policy to learn more. By continuing to use the site, you agree to this use of cookies and data.
  • en France
  • Liste des pays
  • À 7 jours
  • Température de l'eau
  • Carte météo
  • Widgets météo
  • user-avatar
    Se connecter

    Météo par heure à San Vicente

    Ce jour, 19 Septembre, Jeudi

    Heure Température Précipitation Vent Pression Humidité
    00:00 +7°C° 0 mm 2 m/s 742 mmHg 92%
    01:00 +7°C° 0 mm 2 m/s 743 mmHg 93%
    02:00 +7°C° 0 mm 2 m/s 743 mmHg 93%
    03:00 +8°C° 0 mm 1 m/s 743 mmHg 92%
    04:00 +8°C° 0 mm 1 m/s 744 mmHg 92%
    05:00 +7°C° 0 mm 2 m/s 744 mmHg 89%
    06:00 +7°C° 0 mm 2 m/s 744 mmHg 87%
    07:00 +7°C° 0 mm 2 m/s 744 mmHg 85%
    08:00 +9°C° 0 mm 2 m/s 744 mmHg 79%
    09:00 +10°C° 0 mm 2 m/s 744 mmHg 73%
    10:00 +12°C° 0 mm 2 m/s 744 mmHg 67%
    11:00 +13°C° 0 mm 3 m/s 744 mmHg 63%
    12:00 +14°C° 0 mm 3 m/s 744 mmHg 59%
    13:00 +16°C° 0 mm 3 m/s 744 mmHg 55%
    14:00 +16°C° 0 mm 3 m/s 744 mmHg 55%
    15:00 +14°C° 0 mm 3 m/s 744 mmHg 54%
    16:00 +14°C° 0 mm 3 m/s 745 mmHg 54%
    17:00 +12°C° 0 mm 3 m/s 745 mmHg 62%
    18:00 +10°C° 0 mm 2 m/s 746 mmHg 70%
    19:00 +7°C° 0 mm 2 m/s 747 mmHg 78%
    20:00 +7°C° 0 mm 2 m/s 747 mmHg 80%
    21:00 +7°C° 0 mm 1 m/s 748 mmHg 82%
    22:00 +7°C° 0 mm 1 m/s 748 mmHg 83%
    23:00 +6°C° 0 mm 1 m/s 748 mmHg 84%

    Demain, 20 Septembre, Vendredi

    Heure Température Précipitation Vent Pression Humidité
    00:00 +6°C° 0 mm 1 m/s 748 mmHg 84%
    01:00 +4°C° 0 mm 2 m/s 748 mmHg 85%
    02:00 +4°C° 0 mm 2 m/s 748 mmHg 86%
    03:00 +3°C° 0 mm 2 m/s 748 mmHg 87%
    04:00 +4°C° 0 mm 1 m/s 748 mmHg 88%
    05:00 +4°C° 0 mm 2 m/s 748 mmHg 85%
    06:00 +4°C° 0 mm 2 m/s 748 mmHg 83%
    07:00 +5°C° 0 mm 2 m/s 748 mmHg 80%
    08:00 +8°C° 0 mm 2 m/s 748 mmHg 71%
    09:00 +10°C° 0 mm 2 m/s 748 mmHg 62%
    10:00 +14°C° 0 mm 2 m/s 748 mmHg 53%
    11:00 +14°C° 0 mm 3 m/s 747 mmHg 49%
    12:00 +17°C° 0 mm 3 m/s 747 mmHg 46%
    13:00 +18°C° 0 mm 3 m/s 747 mmHg 43%
    14:00 +18°C° 0 mm 3 m/s 747 mmHg 46%
    15:00 +17°C° 0 mm 3 m/s 747 mmHg 49%
    16:00 +17°C° 0 mm 3 m/s 746 mmHg 52%
    17:00 +14°C° 0 mm 2 m/s 747 mmHg 62%
    18:00 +12°C° 0 mm 2 m/s 747 mmHg 71%
    19:00 +9°C° 0 mm 2 m/s 747 mmHg 80%
    20:00 +8°C° 0 mm 2 m/s 747 mmHg 81%
    21:00 +8°C° 0 mm 2 m/s 747 mmHg 83%
    22:00 +8°C° 0 mm 1 m/s 747 mmHg 84%
    23:00 +7°C° 0 mm 2 m/s 747 mmHg 85%

    Après-demain, 21 Septembre, Samedi

    Heure Température Précipitation Vent Pression Humidité
    00:00 +6°C° 0 mm 2 m/s 746 mmHg 85%
    01:00 +6°C° 0 mm 2 m/s 746 mmHg 86%
    02:00 +5°C° 0 mm 2 m/s 746 mmHg 86%
    03:00 +5°C° 0 mm 2 m/s 745 mmHg 86%
    04:00 +5°C° 0 mm 2 m/s 745 mmHg 87%
    05:00 +5°C° 0 mm 2 m/s 745 mmHg 84%
    06:00 +6°C° 0 mm 2 m/s 745 mmHg 80%
    07:00 +7°C° 0 mm 2 m/s 745 mmHg 77%
    08:00 +9°C° 0 mm 2 m/s 745 mmHg 66%
    09:00 +13°C° 0 mm 2 m/s 745 mmHg 55%
    10:00 +16°C° 0 mm 3 m/s 745 mmHg 44%
    11:00 +17°C° 0 mm 3 m/s 745 mmHg 43%
    12:00 +19°C° 0 mm 3 m/s 744 mmHg 41%
    13:00 +20°C° 0 mm 3 m/s 744 mmHg 39%
    14:00 +20°C° 0 mm 3 m/s 744 mmHg 43%
    15:00 +20°C° 0 mm 2 m/s 744 mmHg 48%
    16:00 +19°C° 0 mm 2 m/s 744 mmHg 52%
    17:00 +17°C° 0 mm 2 m/s 744 mmHg 61%
    18:00 +14°C° 0 mm 2 m/s 744 mmHg 70%
    19:00 +12°C° 0 mm 2 m/s 744 mmHg 80%
    20:00 +10°C° 0 mm 2 m/s 744 mmHg 81%
    21:00 +11°C° 0 mm 1 m/s 744 mmHg 82%
    22:00 +10°C° 0 mm 1 m/s 744 mmHg 84%
    23:00 +10°C° 0 mm 1 m/s 744 mmHg 83%

    22 Septembre, Dimanche

    Heure Température Précipitation Vent Pression Humidité
    00:00 +10°C° 0 mm 1 m/s 743 mmHg 83%
    01:00 +9°C° 0 mm 1 m/s 743 mmHg 82%
    02:00 +9°C° 0 mm 1 m/s 743 mmHg 81%
    03:00 +9°C° 0 mm 1 m/s 743 mmHg 80%
    04:00 +9°C° 0 mm 1 m/s 743 mmHg 79%
    05:00 +10°C° 0 mm 1 m/s 743 mmHg 76%
    06:00 +11°C° 0 mm 1 m/s 743 mmHg 73%
    07:00 +12°C° 0 mm 1 m/s 744 mmHg 70%
    08:00 +15°C° 0 mm 1 m/s 744 mmHg 63%
    09:00 +19°C° 0 mm 1 m/s 744 mmHg 57%
    10:00 +21°C° 0 mm 1 m/s 745 mmHg 51%
    11:00 +21°C° 0 mm 2 m/s 745 mmHg 48%
    12:00 +23°C° 0 mm 2 m/s 745 mmHg 46%
    13:00 +25°C° 0 mm 2 m/s 745 mmHg 43%
    14:00 +24°C° 0 mm 2 m/s 745 mmHg 46%
    15:00 +23°C° 0 mm 2 m/s 745 mmHg 50%
    16:00 +21°C° 0 mm 2 m/s 745 mmHg 53%
    17:00 +18°C° 0 mm 2 m/s 745 mmHg 63%
    18:00 +16°C° 0 mm 1 m/s 746 mmHg 73%
    19:00 +13°C° 0 mm 1 m/s 746 mmHg 83%
    20:00 +11°C° 0 mm 0 m/s 746 mmHg 84%
    21:00 +10°C° 0 mm 0 m/s 746 mmHg 85%
    22:00 +10°C° 0 mm 0 m/s 746 mmHg 86%
    23:00 +9°C° 0 mm 0 m/s 746 mmHg 86%

    23 Septembre, Lundi

    Heure Température Précipitation Vent Pression Humidité
    00:00 +9°C° 0 mm 0 m/s 746 mmHg 87%
    01:00 +10°C° 0 mm 1 m/s 746 mmHg 87%
    02:00 +10°C° 0 mm 1 m/s 746 mmHg 87%
    03:00 +10°C° 0 mm 1 m/s 746 mmHg 87%
    04:00 +10°C° 0 mm 1 m/s 746 mmHg 87%
    05:00 +11°C° 0 mm 1 m/s 746 mmHg 85%
    06:00 +12°C° 0 mm 1 m/s 747 mmHg 82%
    07:00 +13°C° 0 mm 1 m/s 747 mmHg 80%
    08:00 +16°C° 0 mm 2 m/s 747 mmHg 71%
    09:00 +18°C° 0 mm 2 m/s 747 mmHg 62%
    10:00 +21°C° 0 mm 2 m/s 747 mmHg 53%
    11:00 +23°C° 0 mm 2 m/s 746 mmHg 49%
    12:00 +24°C° 0 mm 2 m/s 746 mmHg 45%
    13:00 +25°C° 0 mm 3 m/s 746 mmHg 41%
    14:00 +25°C° 0 mm 3 m/s 745 mmHg 45%
    15:00 +24°C° 0 mm 2 m/s 745 mmHg 49%
    16:00 +24°C° 0 mm 2 m/s 744 mmHg 52%
    17:00 +20°C° 0 mm 2 m/s 744 mmHg 62%
    18:00 +17°C° 0 mm 2 m/s 744 mmHg 71%
    19:00 +15°C° 0 mm 2 m/s 744 mmHg 80%
    20:00 +14°C° 0 mm 1 m/s 744 mmHg 80%
    21:00 +14°C° 0 mm 1 m/s 744 mmHg 81%
    22:00 +13°C° 0 mm 1 m/s 744 mmHg 81%
    23:00 +13°C° 0 mm 1 m/s 744 mmHg 80%

    24 Septembre, Mardi

    Heure Température Précipitation Vent Pression Humidité
    00:00 +13°C° 0 mm 1 m/s 744 mmHg 79%
    01:00 +12°C° 0 mm 1 m/s 744 mmHg 78%
    02:00 +12°C° 0 mm 1 m/s 744 mmHg 74%
    03:00 +12°C° 0 mm 1 m/s 743 mmHg 71%
    04:00 +12°C° 0 mm 1 m/s 743 mmHg 67%
    05:00 +14°C° 0 mm 1 m/s 744 mmHg 62%
    06:00 +14°C° 0 mm 0 m/s 744 mmHg 58%
    07:00 +16°C° 0 mm 0 m/s 744 mmHg 53%
    08:00 +21°C° 0 mm 1 m/s 744 mmHg 48%
    09:00 +23°C° 0 mm 1 m/s 744 mmHg 43%
    10:00 +26°C° 0 mm 1 m/s 744 mmHg 38%
    11:00 +27°C° 0 mm 1 m/s 744 mmHg 36%
    12:00 +29°C° 0 mm 2 m/s 743 mmHg 35%
    13:00 +30°C° 0 mm 2 m/s 743 mmHg 33%
    14:00 +30°C° 0 mm 2 m/s 743 mmHg 36%
    15:00 +29°C° 0 mm 1 m/s 743 mmHg 39%
    16:00 +29°C° 0 mm 1 m/s 743 mmHg 43%
    17:00 +26°C° 0 mm 1 m/s 743 mmHg 51%
    18:00 +23°C° 0 mm 1 m/s 743 mmHg 60%
    19:00 +20°C° 0 mm 1 m/s 744 mmHg 68%
    20:00 +19°C° 0 mm 1 m/s 744 mmHg 69%
    21:00 +19°C° 0 mm 1 m/s 744 mmHg 70%
    22:00 +16°C° 0 mm 0 m/s 744 mmHg 70%
    23:00 +16°C° 0 mm 0 m/s 744 mmHg 69%
    Voir plus